Find Starlink 5174

NORAD ID: 54067 Int'l Des: 2022-136 Owner: SPXS Country: US Constellation: starlink operational
LEOCIRCULAR

Live-Position

3D-Globus wird geladen...

Über Starlink 5174

Beschreibung wird geladen...

Nächste Überflüge

Passes for default location (London). Set your location on the main map for personalized predictions.

Höhenverlauf

Loading altitude history...

Zweizeiliger Elementsatz

1 54067U 22136S 26124.63921963 -.00000948 00000-0 -41519-4 0 9997
2 54067 53.2173 92.7268 0001444 78.0826 282.0328 15.08831350195298
Epoch: 4. Mai 2026 • Age: 15 hours

Aktueller Status

Höhe 544.1 km
Geschwindigkeit 7.60 km/s
Subsatellitenpunkt 47.84°N, 167.12°W
Startdatum 20. Okt. 2022
Alter 3.5 years
Typ internet

Technische Details

Klassifizierung Payload
Masse 305.00 kg
Trockenmasse 290.00 kg
Gesamtmasse 305.00 kg
Länge 0.20 m
Durchmesser 2.80 m
Spannweite 9.00 m
Form Box + pan
Hersteller SPXS
Bus-Typ Starlink
Phasenstatus In Orbit
Besitzer/Staat SPXS/US

Most Searched